Location: Coopersdale
(40.3556°N, 78.9372°W)
Time: 23:08:33
(UTC+00:00)

Explorer 11/Cluster Stage 4 - Pass Details

Date: 30 January 2021
Orbit: 467 x 1257 km, 28.8° (Epoch: 25 February)

Event Time Altitude Azimuth Distance (km) Brightness Sun altitude
Rises 00:27:11 0° 234° (SW) 2,778 10.4 -22.3°
Reaches altitude 10° 00:29:46 10° 217° (SW) 1,994 9.2 -22.7°
Maximum altitude 00:33:13 20° 169° (SSE) 1,570 8.0 -23.4°
Enters shadow 00:33:36 20° 162° (SSE) 1,593 8.0 -23.5°
